Regional Weather Roundup
Issued by NWS San Angelo, TX

Home | Current Version | Previous Version | Text Only | Print | Product List | Glossary On
Versions: 1 2 3 4 5 6 7 8 9 10 11 12 13 14 15 16 17 18 19 20 21 22 23 24 25 26 27 28 29 30 31 32 33 34 35 36 37 38 39 40 41 42 43 44 45 46 47 48 49 50
000
ASUS44 KSJT 270010
RWRSJT
WEST CENTRAL TEXAS REGIONAL WEATHER ROUNDUP
NATIONAL WEATHER SERVICE SAN ANGELO TX
600 PM CST WED NOV 26 2014

NOTE: "FAIR" INDICATES FEW OR NO CLOUDS BELOW 12,000 FEET WITH NO
SIGNIFICANT WEATHER AND/OR OBSTRUCTIONS TO VISIBILITY.

TXZ049-054-064>066-071>073-076>078-098-099-113-114-127-128-139-140-
154-155-168>170-270100
...LOCATIONS ACROSS WEST CENTRAL TEXAS...

CITY           SKY/WX    TMP DP  RH WIND       PRES   REMARKS
SAN ANGELO     CLEAR     57  33  40 NE8       30.26R
ABILENE        CLEAR     54  35  48 N8        30.29R
DYESS AFB      CLEAR     53  35  50 NE8       30.29R
JUNCTION       CLEAR     63  27  25 N12       30.23R
SWEETWATER     CLEAR     53  33  46 NE7       30.32R
BROWNWOOD      CLEAR     55  32  41 N7        30.29R
COLEMAN        CLEAR     52  40  62 NE8       30.28R
SONORA         CLEAR     63  25  23 N8        30.28R
OZONA          FAIR      63  23  22 N5        30.26R
BRADY          CLEAR     52  34  50 N6        30.26R
$$

TEXAS PANHANDLE/OKLAHOMA PANHANDLE

CITY           SKY/WX    TMP DP  RH WIND       PRES   REMARKS
AMARILLO       CLEAR     44  23  43 E3        30.31R
BORGER         PTCLDY    47  21  35 NE6       30.30R
CANADIAN       PTCLDY    46  21  38 N7        30.31R
DALHART        PTCLDY    43  24  47 E6        30.29R WCI  39
DUMAS            N/A     42  21  42 CALM      30.30R
GUYMON         NOT AVBL
HEREFORD       CLEAR     43  28  53 NE6       30.30F WCI  40
PAMPA          PTCLDY    39  21  48 NE6       30.30R WCI  35
PERRYTON       PTCLDY    40  19  44 NE7       30.31R WCI  35
$$

SOUTHERN PANHANDLE/SOUTH PLAINS/ROLLING PLAINS

CITY           SKY/WX    TMP DP  RH WIND       PRES   REMARKS
LUBBOCK        PTCLDY    49  26  41 E5        30.29R
SNYDER         CLEAR     53  32  45 NE5       30.30R
CHILDRESS      CLEAR     52  25  35 NE3       30.31R
SEMINOLE       CLEAR     54  28  36 CALM      30.28R
$$

PERMIAN BASIN

CITY           SKY/WX    TMP DP  RH WIND       PRES   REMARKS
MIDLAND        CLEAR     54  29  38 NE7       30.27R
ODESSA         CLEAR     53  26  35 NE7       30.28R
WINK           CLEAR     60  21  22 NE8       30.23R
$$

FAR WEST/SOUTHWEST MOUNTAINS/TRANS PECOS

CITY           SKY/WX    TMP DP  RH WIND       PRES   REMARKS
ALPINE         CLEAR     58  20  23 SW8       30.32R
DRYDEN           N/A     66  17  15 S6        30.20R
EL PASO        CLEAR     63  19  18 S3        30.26S
FORT STOCKTON  CLEAR     58  20  22 E7        30.25R
GUADALUPE PASS NOT AVBL
MARFA          CLEAR     55  16  21 W9        30.31R
PECOS          CLEAR     62  24  23 E7        30.23R
$$

DALLAS/FORT WORTH METROPLEX

CITY           SKY/WX    TMP DP  RH WIND       PRES   REMARKS
DFW AIRPORT    PTCLDY    56  34  43 N8        30.25R
FTW MEACHAM    CLEAR     58  37  45 NW6       30.25R
DAL-EXECUTIVE  CLEAR     57  34  41 N6        30.24R
GRAND PRAIRIE  NOT AVBL
ADDISON        CLEAR     57  32  38 NW5       30.25
MESQUITE       CLEAR     55  32  41 MISG      30.24R
LANCASTER      CLEAR     57  31  36 NW5       30.26R
$$

NORTH CENTRAL TEXAS

CITY           SKY/WX    TMP DP  RH WIND       PRES   REMARKS
SHRMAN/DENISON CLEAR     53  37  56 N6        30.26R
GAINESVILLE    CLEAR     52  33  48 NW6       30.29R
BRIDGEPORT     CLEAR     53  39  58 NW3       30.29R
DENTON         CLEAR     56  34  43 NW6       30.26R
WAXAHACHIE     CLEAR     56  36  46 NW5       30.26R
GRANBURY       CLEAR     57  37  46 CALM      30.28R
$$

WESTERN NORTH TEXAS

CITY           SKY/WX    TMP DP  RH WIND       PRES   REMARKS
WICHITA FALLS  CLEAR     52  34  50 NW6       30.29R
VERNON         CLEAR     54  28  37 N3        30.31R
BRECKENRIDGE   CLEAR     56  34  43 N6        30.30R
COMANCHE       CLEAR     55  37  51 N8        30.27R
$$

CENTRAL AND SOUTH CENTRAL TEXAS

CITY           SKY/WX    TMP DP  RH WIND       PRES   REMARKS
AUSTIN/BERGSTM CLEAR     67  32  27 CALM      30.21R
WACO           CLEAR     54  34  46 N5        30.24R
HILLSBORO      CLEAR     56  33  42 N7        30.25R
TEMPLE         CLEAR     57  30  35 N6        30.24R
KILLEEN-GRAY   CLEAR     58  33  38 N7        30.24R
FORT HOOD      CLEAR     61  32  33 N5        30.24R
GEORGETOWN     CLEAR     61  34  36 N6        30.23R
LAGO VISTA     FAIR      62  32  32 N7        30.24R
SAN MARCOS     CLEAR     64  36  34 S3        30.21R
NEW BRAUNFELS  CLEAR     60  37  42 S7        30.19R
RANDOLPH AFB   CLEAR     66  33  29 S6        30.20R
SAN ANTONIO    CLEAR     66  33  29 S7        30.20R
STINSON        CLEAR     63  37  38 CALM      30.19R
PLEASANTON     NOT AVBL
LA GRANGE      CLEAR     59  46  63 CALM      30.20R
GIDDINGS       CLEAR     61  39  44 CALM      30.25R
$$

EAST TEXAS

CITY           SKY/WX    TMP DP  RH WIND       PRES   REMARKS
PARIS          CLEAR     54  30  40 CALM      30.23R
CLARKSVILLE    NOT AVBL
TYLER          CLEAR     58  33  39 NW7       30.22R
LONGVIEW       CLEAR     57  33  40 W5        30.20R
PALESTINE      CLEAR     55  38  52 CALM      30.24R
NACOGDOCHES    CLEAR     54  37  54 CALM      30.22R
$$

TEXAS HILL COUNTRY AND EDWARDS PLATEAU

CITY           SKY/WX    TMP DP  RH WIND       PRES   REMARKS
LLANO          CLEAR     59  34  38 N5        30.27R
HORSESHOE BAY  FAIR      60  32  35 CALM      30.23R
KERRVILLE      CLEAR     61  27  26 CALM      30.22R
FREDERICKSBRG  CLEAR     59  31  35 N6        30.23R
ROCKSPRINGS    CLEAR     63  23  22 MISG      30.25R
HONDO            N/A     60  32  34 MISG      30.22R
UVALDE         CLEAR     68  24  19 SW3       30.21R
DEL RIO        CLEAR     66  32  28 S5        30.19R
$$

SOUTHEAST TEXAS

CITY           SKY/WX    TMP DP  RH WIND       PRES   REMARKS
COLLEGE STN    CLEAR     64  37  36 N6        30.21R
CALDWELL       CLEAR     64  32  29 N5        30.25R
CROCKETT       CLEAR     55  45  67 CALM      30.25R
BRENHAM        CLEAR     67  37  33 CALM      30.22R
HUNTSVILLE     CLEAR     61  38  42 CALM      30.21R
CONROE         CLEAR     55  46  71 CALM      30.22R
HOUSTON BUSH   CLEAR     61  40  45 CALM      30.22R
HOUSTON HOBBY  CLEAR     62  41  46 S6        30.22R
PERLAND        CLEAR     64  41  42 S8        30.24R
WHARTON        CLEAR     59  44  58 S5        30.23R
$$

THE UPPER TEXAS COAST

CITY           SKY/WX    TMP DP  RH WIND       PRES   REMARKS
ORANGE         CLEAR     61  39  44 S3        30.23R
PORT ARTHUR    CLEAR     59  46  62 S6        30.21R
GALVESTON      CLEAR     62  43  49 SW12      30.24R
ANGLETON       CLEAR     59  42  53 SW5       30.23R
BAY CITY         N/A     59  46  60 CALM      30.23R
$$

TEXAS COASTAL BEND, RIO GRANDE PLAINS DEEP SOUTH TEXAS

CITY           SKY/WX    TMP DP  RH WIND       PRES   REMARKS
VICTORIA       CLEAR     65  40  39 S3        30.22R
BEEVILLE       FAIR      67  35  31 CALM      30.21R
ROCKPORT       CLEAR     62  47  57 S6        30.22S
PORT ARANSAS   CLEAR     63  53  69 S7        30.23R
PORT LAVACA    NOT AVBL
CORPUS CHRISTI CLEAR     61  46  57 S7        30.22R
KINGSVILLE NAS CLEAR     66  43  43 S6        30.23R
COTULLA        CLEAR     68  33  27 CALM      30.21R
LAREDO         CLEAR     69  31  24 SE5       30.23S
BROWNSVILLE    CLEAR     60  49  66 SE8       30.24S
PORT ISABEL    CLEAR     62  50  64 S8        30.23R
HEBBRONVILLE   CLEAR     67  36  31 S3        30.23R
MCALLEN        CLEAR     64  48  56 CALM      30.22R
WESLACO        CLEAR     67  44  42 S7        30.23R
FALFURRIAS     CLEAR     67  38  34 S3        30.22R
EDINBURG       CLEAR     72  38  29 CALM      30.22R
$$


USA.gov is the U.S. government's official web portal to all federal, state and local government web resources and services.